Volver al catálogo

STARLINK-33573

ActivoComunicacionesVLEO
NORAD 62778·PAYLOAD·🇺🇸 United States

Lanzado Jan 21, 2025 desde Vandenberg Space Force Base

Loading…

Próximos Pases (próximas 24 horas)

TLE

ActualizadoSource: CelesTrak SupGP

Época: Sep 15, 2026, 02:49 UTC

1 62778C 25015W   26258.11784722  .00007004  00000+0  20694-3 0  2580
2 62778  53.1576 159.1901 0001261  84.6205 189.2421 15.34387128    10

Sigue STARLINK-33573 en tiempo real con AllMySat

Download on the App Store